owner,sensor,date,latitude,longitude,vertical_datum,mass_concentration_of_oxygen_in_sea_water,qcFlag 
TCOON,ioos:station:TCOON:072:1,2017-09-01T00:30:00Z,27.8392,-97.4440,1.0,14.2,1111122 
TCOON,ioos:station:TCOON:072:1,2017-09-01T01:30:00Z,27.8392,-97.4440,1.0,13.43,1111122 
TCOON,ioos:station:TCOON:072:1,2017-09-01T02:30:00Z,27.8392,-97.4440,1.0,12.61,1111122 
TCOON,ioos:station:TCOON:072:1,2017-09-01T03:30:00Z,27.8392,-97.4440,1.0,11.77,1111122 
TCOON,ioos:station:TCOON:072:1,2017-09-01T04:30:00Z,27.8392,-97.4440,1.0,11.36,1111122 
TCOON,ioos:station:TCOON:072:1,2017-09-01T05:30:00Z,27.8392,-97.4440,1.0,10.63,1111122 
TCOON,ioos:station:TCOON:072:1,2017-09-01T06:30:00Z,27.8392,-97.4440,1.0,10.49,1111122 
TCOON,ioos:station:TCOON:072:1,2017-09-01T07:30:00Z,27.8392,-97.4440,1.0,10.03,1111122 
TCOON,ioos:station:TCOON:072:1,2017-09-01T08:30:00Z,27.8392,-97.4440,1.0,10.07,1111122 
TCOON,ioos:station:TCOON:072:1,2017-09-01T09:30:00Z,27.8392,-97.4440,1.0,9.72,1111122 
TCOON,ioos:station:TCOON:072:1,2017-09-01T10:30:00Z,27.8392,-97.4440,1.0,9.25,1111122 
TCOON,ioos:station:TCOON:072:1,2017-09-01T11:30:00Z,27.8392,-97.4440,1.0,8.91,1111122 
TCOON,ioos:station:TCOON:072:1,2017-09-01T12:30:00Z,27.8392,-97.4440,1.0,8.25,1111122 
TCOON,ioos:station:TCOON:072:1,2017-09-01T13:30:00Z,27.8392,-97.4440,1.0,8.15,1111122 
TCOON,ioos:station:TCOON:072:1,2017-09-01T14:30:00Z,27.8392,-97.4440,1.0,8.22,1111122 
TCOON,ioos:station:TCOON:072:1,2017-09-01T15:30:00Z,27.8392,-97.4440,1.0,8.77,1111122 
TCOON,ioos:station:TCOON:072:1,2017-09-01T16:30:00Z,27.8392,-97.4440,1.0,8.73,1111122 
TCOON,ioos:station:TCOON:072:1,2017-09-01T17:30:00Z,27.8392,-97.4440,1.0,10.42,1111122 
TCOON,ioos:station:TCOON:072:1,2017-09-01T18:30:00Z,27.8392,-97.4440,1.0,10.3,1111122 
TCOON,ioos:station:TCOON:072:1,2017-09-01T19:30:00Z,27.8392,-97.4440,1.0,12.21,1111122 
TCOON,ioos:station:TCOON:072:1,2017-09-01T20:30:00Z,27.8392,-97.4440,1.0,11.81,1111122 
TCOON,ioos:station:TCOON:072:1,2017-09-01T21:30:00Z,27.8392,-97.4440,1.0,11.79,1111122 
TCOON,ioos:station:TCOON:072:1,2017-09-01T22:30:00Z,27.8392,-97.4440,1.0,12.73,1111122 
TCOON,ioos:station:TCOON:072:1,2017-09-02T00:30:00Z,27.8392,-97.4440,1.0,12.11,1111122 
TCOON,ioos:station:TCOON:072:1,2017-09-02T01:30:00Z,27.8392,-97.4440,1.0,10.96,1111122 
TCOON,ioos:station:TCOON:072:1,2017-09-02T02:30:00Z,27.8392,-97.4440,1.0,10.76,1111122 
TCOON,ioos:station:TCOON:072:1,2017-09-02T03:30:00Z,27.8392,-97.4440,1.0,11.07,1111122 
TCOON,ioos:station:TCOON:072:1,2017-09-02T04:30:00Z,27.8392,-97.4440,1.0,10.48,1111122 
TCOON,ioos:station:TCOON:072:1,2017-09-02T05:30:00Z,27.8392,-97.4440,1.0,10.22,1111122 
TCOON,ioos:station:TCOON:072:1,2017-09-02T06:30:00Z,27.8392,-97.4440,1.0,9.89,1111122 
TCOON,ioos:station:TCOON:072:1,2017-09-02T07:30:00Z,27.8392,-97.4440,1.0,9.61,1111122 
TCOON,ioos:station:TCOON:072:1,2017-09-02T08:30:00Z,27.8392,-97.4440,1.0,9.3,1111122 
TCOON,ioos:station:TCOON:072:1,2017-09-02T09:30:00Z,27.8392,-97.4440,1.0,8.99,1111122 
TCOON,ioos:station:TCOON:072:1,2017-09-02T10:30:00Z,27.8392,-97.4440,1.0,8.63,1111122 
TCOON,ioos:station:TCOON:072:1,2017-09-02T11:30:00Z,27.8392,-97.4440,1.0,8.01,1111122 
TCOON,ioos:station:TCOON:072:1,2017-09-02T12:30:00Z,27.8392,-97.4440,1.0,7.85,1111122 
TCOON,ioos:station:TCOON:072:1,2017-09-02T13:30:00Z,27.8392,-97.4440,1.0,7.56,1111122 
TCOON,ioos:station:TCOON:072:1,2017-09-02T14:30:00Z,27.8392,-97.4440,1.0,7.66,1111122 
TCOON,ioos:station:TCOON:072:1,2017-09-02T15:30:00Z,27.8392,-97.4440,1.0,7.56,1111122 
TCOON,ioos:station:TCOON:072:1,2017-09-02T16:30:00Z,27.8392,-97.4440,1.0,7.88,1111122 
TCOON,ioos:station:TCOON:072:1,2017-09-02T17:30:00Z,27.8392,-97.4440,1.0,8.01,1111122 
TCOON,ioos:station:TCOON:072:1,2017-09-02T18:30:00Z,27.8392,-97.4440,1.0,8.27,1111122 
TCOON,ioos:station:TCOON:072:1,2017-09-02T19:30:00Z,27.8392,-97.4440,1.0,8.37,1111122 
TCOON,ioos:station:TCOON:072:1,2017-09-02T20:30:00Z,27.8392,-97.4440,1.0,8.39,1111122 
TCOON,ioos:station:TCOON:072:1,2017-09-02T21:30:00Z,27.8392,-97.4440,1.0,8.22,1111122 
TCOON,ioos:station:TCOON:072:1,2017-09-02T22:30:00Z,27.8392,-97.4440,1.0,8.08,1111122 
TCOON,ioos:station:TCOON:072:1,2017-09-02T23:30:00Z,27.8392,-97.4440,1.0,8.06,1111122 
TCOON,ioos:station:TCOON:072:1,2017-09-03T00:30:00Z,27.8392,-97.4440,1.0,8.03,1111122 
TCOON,ioos:station:TCOON:072:1,2017-09-03T01:30:00Z,27.8392,-97.4440,1.0,7.8,1111122 
TCOON,ioos:station:TCOON:072:1,2017-09-03T02:30:00Z,27.8392,-97.4440,1.0,7.5,1111122 
TCOON,ioos:station:TCOON:072:1,2017-09-03T03:30:00Z,27.8392,-97.4440,1.0,7.08,1111122 
TCOON,ioos:station:TCOON:072:1,2017-09-03T04:30:00Z,27.8392,-97.4440,1.0,7.23,1111122 
TCOON,ioos:station:TCOON:072:1,2017-09-03T05:30:00Z,27.8392,-97.4440,1.0,7.15,1111122 
TCOON,ioos:station:TCOON:072:1,2017-09-03T06:30:00Z,27.8392,-97.4440,1.0,6.73,1111122 
TCOON,ioos:station:TCOON:072:1,2017-09-03T07:30:00Z,27.8392,-97.4440,1.0,6.3,1111122 
TCOON,ioos:station:TCOON:072:1,2017-09-03T08:30:00Z,27.8392,-97.4440,1.0,6.02,1111122 
TCOON,ioos:station:TCOON:072:1,2017-09-03T09:30:00Z,27.8392,-97.4440,1.0,5.87,1111122 
TCOON,ioos:station:TCOON:072:1,2017-09-03T10:30:00Z,27.8392,-97.4440,1.0,5.67,1111122 
TCOON,ioos:station:TCOON:072:1,2017-09-03T11:30:00Z,27.8392,-97.4440,1.0,5.62,1111122 
TCOON,ioos:station:TCOON:072:1,2017-09-03T12:30:00Z,27.8392,-97.4440,1.0,5.72,1111122 
TCOON,ioos:station:TCOON:072:1,2017-09-03T13:30:00Z,27.8392,-97.4440,1.0,5.63,1111122 
TCOON,ioos:station:TCOON:072:1,2017-09-03T14:30:00Z,27.8392,-97.4440,1.0,5.55,1111122 
TCOON,ioos:station:TCOON:072:1,2017-09-03T15:30:00Z,27.8392,-97.4440,1.0,5.46,1111122 
TCOON,ioos:station:TCOON:072:1,2017-09-03T16:30:00Z,27.8392,-97.4440,1.0,5.88,1111122 
TCOON,ioos:station:TCOON:072:1,2017-09-03T17:30:00Z,27.8392,-97.4440,1.0,5.78,1111122 
TCOON,ioos:station:TCOON:072:1,2017-09-03T18:30:00Z,27.8392,-97.4440,1.0,6.03,1111122 
TCOON,ioos:station:TCOON:072:1,2017-09-03T19:30:00Z,27.8392,-97.4440,1.0,6.58,1111122 
TCOON,ioos:station:TCOON:072:1,2017-09-03T20:30:00Z,27.8392,-97.4440,1.0,6.74,1111122 
TCOON,ioos:station:TCOON:072:1,2017-09-03T21:30:00Z,27.8392,-97.4440,1.0,6.49,1111122 
TCOON,ioos:station:TCOON:072:1,2017-09-03T22:30:00Z,27.8392,-97.4440,1.0,6.66,1111122 
TCOON,ioos:station:TCOON:072:1,2017-09-03T23:30:00Z,27.8392,-97.4440,1.0,6.54,1111122 
TCOON,ioos:station:TCOON:072:1,2017-09-04T00:30:00Z,27.8392,-97.4440,1.0,6.2,1111122 
TCOON,ioos:station:TCOON:072:1,2017-09-04T01:30:00Z,27.8392,-97.4440,1.0,5.96,1111122 
TCOON,ioos:station:TCOON:072:1,2017-09-04T02:30:00Z,27.8392,-97.4440,1.0,6.19,1111122 
TCOON,ioos:station:TCOON:072:1,2017-09-04T03:30:00Z,27.8392,-97.4440,1.0,6.21,1111122 
TCOON,ioos:station:TCOON:072:1,2017-09-04T04:30:00Z,27.8392,-97.4440,1.0,6.0,1111122 
TCOON,ioos:station:TCOON:072:1,2017-09-04T05:30:00Z,27.8392,-97.4440,1.0,5.45,1111122 
TCOON,ioos:station:TCOON:072:1,2017-09-04T06:30:00Z,27.8392,-97.4440,1.0,5.36,1111122 
TCOON,ioos:station:TCOON:072:1,2017-09-04T07:30:00Z,27.8392,-97.4440,1.0,5.44,1111122 
TCOON,ioos:station:TCOON:072:1,2017-09-04T08:30:00Z,27.8392,-97.4440,1.0,5.2,1111122 
TCOON,ioos:station:TCOON:072:1,2017-09-04T09:30:00Z,27.8392,-97.4440,1.0,4.96,1111122 
TCOON,ioos:station:TCOON:072:1,2017-09-04T10:30:00Z,27.8392,-97.4440,1.0,4.96,1111122 
TCOON,ioos:station:TCOON:072:1,2017-09-04T11:30:00Z,27.8392,-97.4440,1.0,4.42,1111122 
TCOON,ioos:station:TCOON:072:1,2017-09-04T12:30:00Z,27.8392,-97.4440,1.0,4.6,1111122 
TCOON,ioos:station:TCOON:072:1,2017-09-04T13:30:00Z,27.8392,-97.4440,1.0,4.96,1111122 
TCOON,ioos:station:TCOON:072:1,2017-09-04T14:30:00Z,27.8392,-97.4440,1.0,4.82,1111122 
TCOON,ioos:station:TCOON:072:1,2017-09-04T15:30:00Z,27.8392,-97.4440,1.0,5.15,1111122 
TCOON,ioos:station:TCOON:072:1,2017-09-04T16:30:00Z,27.8392,-97.4440,1.0,5.64,1111122 
TCOON,ioos:station:TCOON:072:1,2017-09-04T17:30:00Z,27.8392,-97.4440,1.0,5.81,1111122 
TCOON,ioos:station:TCOON:072:1,2017-09-04T18:30:00Z,27.8392,-97.4440,1.0,5.74,1111122 
TCOON,ioos:station:TCOON:072:1,2017-09-04T19:30:00Z,27.8392,-97.4440,1.0,5.68,1111122 
TCOON,ioos:station:TCOON:072:1,2017-09-04T20:30:00Z,27.8392,-97.4440,1.0,5.77,1111122 
TCOON,ioos:station:TCOON:072:1,2017-09-04T21:30:00Z,27.8392,-97.4440,1.0,5.82,1111122 
TCOON,ioos:station:TCOON:072:1,2017-09-04T22:30:00Z,27.8392,-97.4440,1.0,5.96,1111122 
TCOON,ioos:station:TCOON:072:1,2017-09-05T00:30:00Z,27.8392,-97.4440,1.0,5.94,1111122 
TCOON,ioos:station:TCOON:072:1,2017-09-05T01:30:00Z,27.8392,-97.4440,1.0,6.2,1111122 
TCOON,ioos:station:TCOON:072:1,2017-09-05T02:30:00Z,27.8392,-97.4440,1.0,6.05,1111122 
TCOON,ioos:station:TCOON:072:1,2017-09-05T03:30:00Z,27.8392,-97.4440,1.0,6.03,1111122 
TCOON,ioos:station:TCOON:072:1,2017-09-05T04:30:00Z,27.8392,-97.4440,1.0,5.78,1111122 
TCOON,ioos:station:TCOON:072:1,2017-09-05T05:30:00Z,27.8392,-97.4440,1.0,5.64,1111122 
TCOON,ioos:station:TCOON:072:1,2017-09-05T06:30:00Z,27.8392,-97.4440,1.0,5.52,1111122 
TCOON,ioos:station:TCOON:072:1,2017-09-05T07:30:00Z,27.8392,-97.4440,1.0,5.35,1111122 
TCOON,ioos:station:TCOON:072:1,2017-09-05T08:30:00Z,27.8392,-97.4440,1.0,5.21,1111122 
TCOON,ioos:station:TCOON:072:1,2017-09-05T09:30:00Z,27.8392,-97.4440,1.0,4.77,1111122 
TCOON,ioos:station:TCOON:072:1,2017-09-05T10:30:00Z,27.8392,-97.4440,1.0,4.56,1111122 
TCOON,ioos:station:TCOON:072:1,2017-09-05T11:30:00Z,27.8392,-97.4440,1.0,4.32,1111122 
TCOON,ioos:station:TCOON:072:1,2017-09-05T12:30:00Z,27.8392,-97.4440,1.0,4.23,1111122 
TCOON,ioos:station:TCOON:072:1,2017-09-05T13:30:00Z,27.8392,-97.4440,1.0,3.55,1111122 
TCOON,ioos:station:TCOON:072:1,2017-09-05T14:30:00Z,27.8392,-97.4440,1.0,4.07,1111122 
TCOON,ioos:station:TCOON:072:1,2017-09-05T15:30:00Z,27.8392,-97.4440,1.0,4.6,1111122 
TCOON,ioos:station:TCOON:072:1,2017-09-05T16:30:00Z,27.8392,-97.4440,1.0,5.1,1111122 
TCOON,ioos:station:TCOON:072:1,2017-09-05T17:30:00Z,27.8392,-97.4440,1.0,5.52,1111122 
TCOON,ioos:station:TCOON:072:1,2017-09-05T18:30:00Z,27.8392,-97.4440,1.0,5.94,1111122 
TCOON,ioos:station:TCOON:072:1,2017-09-05T19:30:00Z,27.8392,-97.4440,1.0,6.79,1111122 
TCOON,ioos:station:TCOON:072:1,2017-09-05T20:30:00Z,27.8392,-97.4440,1.0,6.54,1111122 
TCOON,ioos:station:TCOON:072:1,2017-09-05T21:30:00Z,27.8392,-97.4440,1.0,6.2,1111122 
TCOON,ioos:station:TCOON:072:1,2017-09-05T22:30:00Z,27.8392,-97.4440,1.0,6.06,1111122 
TCOON,ioos:station:TCOON:072:1,2017-09-05T23:30:00Z,27.8392,-97.4440,1.0,6.29,1111122 
TCOON,ioos:station:TCOON:072:1,2017-09-06T00:30:00Z,27.8392,-97.4440,1.0,6.14,1111122 
TCOON,ioos:station:TCOON:072:1,2017-09-06T01:30:00Z,27.8392,-97.4440,1.0,5.94,1111122 
TCOON,ioos:station:TCOON:072:1,2017-09-07T14:30:00Z,27.8392,-97.4440,1.0,4.57,1111122 
TCOON,ioos:station:TCOON:072:1,2017-09-07T15:30:00Z,27.8392,-97.4440,1.0,3.24,1111122 
TCOON,ioos:station:TCOON:072:1,2017-09-07T16:30:00Z,27.8392,-97.4440,1.0,4.62,1111122 
TCOON,ioos:station:TCOON:072:1,2017-09-07T17:30:00Z,27.8392,-97.4440,1.0,5.28,1111122 
TCOON,ioos:station:TCOON:072:1,2017-09-07T18:30:00Z,27.8392,-97.4440,1.0,4.72,1111122 
TCOON,ioos:station:TCOON:072:1,2017-09-07T19:30:00Z,27.8392,-97.4440,1.0,5.68,1111122 
TCOON,ioos:station:TCOON:072:1,2017-09-07T20:30:00Z,27.8392,-97.4440,1.0,4.03,1111122 
TCOON,ioos:station:TCOON:072:1,2017-09-07T21:30:00Z,27.8392,-97.4440,1.0,4.42,1111122 
TCOON,ioos:station:TCOON:072:1,2017-09-07T22:30:00Z,27.8392,-97.4440,1.0,6.04,1111122 
TCOON,ioos:station:TCOON:072:1,2017-09-07T23:30:00Z,27.8392,-97.4440,1.0,6.72,1111122 
TCOON,ioos:station:TCOON:072:1,2017-09-08T00:30:00Z,27.8392,-97.4440,1.0,6.36,1111122 
TCOON,ioos:station:TCOON:072:1,2017-09-08T01:30:00Z,27.8392,-97.4440,1.0,6.48,1111122 
TCOON,ioos:station:TCOON:072:1,2017-09-08T02:30:00Z,27.8392,-97.4440,1.0,6.54,1111122 
TCOON,ioos:station:TCOON:072:1,2017-09-08T03:30:00Z,27.8392,-97.4440,1.0,6.47,1111122 
TCOON,ioos:station:TCOON:072:1,2017-09-08T04:30:00Z,27.8392,-97.4440,1.0,6.53,1111122 
TCOON,ioos:station:TCOON:072:1,2017-09-08T05:30:00Z,27.8392,-97.4440,1.0,6.41,1111122 
TCOON,ioos:station:TCOON:072:1,2017-09-08T06:30:00Z,27.8392,-97.4440,1.0,6.2,1111122 
TCOON,ioos:station:TCOON:072:1,2017-09-08T07:30:00Z,27.8392,-97.4440,1.0,5.89,1111122 
TCOON,ioos:station:TCOON:072:1,2017-09-08T08:30:00Z,27.8392,-97.4440,1.0,5.82,1111122 
TCOON,ioos:station:TCOON:072:1,2017-09-08T09:30:00Z,27.8392,-97.4440,1.0,5.75,1111122 
TCOON,ioos:station:TCOON:072:1,2017-09-08T10:30:00Z,27.8392,-97.4440,1.0,5.71,1111122 
TCOON,ioos:station:TCOON:072:1,2017-09-08T11:30:00Z,27.8392,-97.4440,1.0,5.76,1111122 
TCOON,ioos:station:TCOON:072:1,2017-09-08T12:30:00Z,27.8392,-97.4440,1.0,5.41,1111122 
TCOON,ioos:station:TCOON:072:1,2017-09-08T13:30:00Z,27.8392,-97.4440,1.0,5.58,1111122 
TCOON,ioos:station:TCOON:072:1,2017-09-08T14:30:00Z,27.8392,-97.4440,1.0,5.63,1111122 
TCOON,ioos:station:TCOON:072:1,2017-09-08T15:30:00Z,27.8392,-97.4440,1.0,5.68,1111122 
TCOON,ioos:station:TCOON:072:1,2017-09-08T16:30:00Z,27.8392,-97.4440,1.0,5.62,1111122 
TCOON,ioos:station:TCOON:072:1,2017-09-08T17:30:00Z,27.8392,-97.4440,1.0,5.02,1111122 
TCOON,ioos:station:TCOON:072:1,2017-09-08T18:30:00Z,27.8392,-97.4440,1.0,5.75,1111122 
TCOON,ioos:station:TCOON:072:1,2017-09-08T19:30:00Z,27.8392,-97.4440,1.0,6.27,1111122 
TCOON,ioos:station:TCOON:072:1,2017-09-08T20:30:00Z,27.8392,-97.4440,1.0,6.79,1111122 
TCOON,ioos:station:TCOON:072:1,2017-09-08T21:30:00Z,27.8392,-97.4440,1.0,6.73,1111122 
TCOON,ioos:station:TCOON:072:1,2017-09-08T22:30:00Z,27.8392,-97.4440,1.0,6.88,1111122 
TCOON,ioos:station:TCOON:072:1,2017-09-08T23:30:00Z,27.8392,-97.4440,1.0,6.64,1111122 
TCOON,ioos:station:TCOON:072:1,2017-09-09T00:30:00Z,27.8392,-97.4440,1.0,6.3,1111122 
TCOON,ioos:station:TCOON:072:1,2017-09-09T01:30:00Z,27.8392,-97.4440,1.0,6.5,1111122 
TCOON,ioos:station:TCOON:072:1,2017-09-09T02:30:00Z,27.8392,-97.4440,1.0,6.49,1111122 
TCOON,ioos:station:TCOON:072:1,2017-09-09T03:30:00Z,27.8392,-97.4440,1.0,6.5,1111122 
TCOON,ioos:station:TCOON:072:1,2017-09-09T04:30:00Z,27.8392,-97.4440,1.0,6.49,1111122 
TCOON,ioos:station:TCOON:072:1,2017-09-09T05:30:00Z,27.8392,-97.4440,1.0,6.36,1111122 
TCOON,ioos:station:TCOON:072:1,2017-09-09T06:30:00Z,27.8392,-97.4440,1.0,6.22,1111122 
TCOON,ioos:station:TCOON:072:1,2017-09-09T07:30:00Z,27.8392,-97.4440,1.0,6.03,1111122 
TCOON,ioos:station:TCOON:072:1,2017-09-09T08:30:00Z,27.8392,-97.4440,1.0,5.99,1111122 
TCOON,ioos:station:TCOON:072:1,2017-09-09T09:30:00Z,27.8392,-97.4440,1.0,5.78,1111122 
TCOON,ioos:station:TCOON:072:1,2017-09-09T10:30:00Z,27.8392,-97.4440,1.0,5.78,1111122 
TCOON,ioos:station:TCOON:072:1,2017-09-09T11:30:00Z,27.8392,-97.4440,1.0,5.61,1111122 
TCOON,ioos:station:TCOON:072:1,2017-09-09T12:30:00Z,27.8392,-97.4440,1.0,5.57,1111122 
TCOON,ioos:station:TCOON:072:1,2017-09-09T13:30:00Z,27.8392,-97.4440,1.0,5.78,1111122 
TCOON,ioos:station:TCOON:072:1,2017-09-09T14:30:00Z,27.8392,-97.4440,1.0,5.76,1111122 
TCOON,ioos:station:TCOON:072:1,2017-09-09T15:30:00Z,27.8392,-97.4440,1.0,5.61,1111122 
TCOON,ioos:station:TCOON:072:1,2017-09-09T16:30:00Z,27.8392,-97.4440,1.0,5.56,1111122 
TCOON,ioos:station:TCOON:072:1,2017-09-09T17:30:00Z,27.8392,-97.4440,1.0,5.84,1111122 
TCOON,ioos:station:TCOON:072:1,2017-09-09T18:30:00Z,27.8392,-97.4440,1.0,6.2,1111122 
TCOON,ioos:station:TCOON:072:1,2017-09-09T19:30:00Z,27.8392,-97.4440,1.0,6.51,1111122 
TCOON,ioos:station:TCOON:072:1,2017-09-09T20:30:00Z,27.8392,-97.4440,1.0,6.53,1111122 
TCOON,ioos:station:TCOON:072:1,2017-09-09T21:30:00Z,27.8392,-97.4440,1.0,4.82,1111122 
TCOON,ioos:station:TCOON:072:1,2017-09-09T22:30:00Z,27.8392,-97.4440,1.0,7.15,1111122 
TCOON,ioos:station:TCOON:072:1,2017-09-09T23:30:00Z,27.8392,-97.4440,1.0,6.65,1111122 
TCOON,ioos:station:TCOON:072:1,2017-09-10T00:30:00Z,27.8392,-97.4440,1.0,6.48,1111122 
TCOON,ioos:station:TCOON:072:1,2017-09-10T01:30:00Z,27.8392,-97.4440,1.0,6.52,1111122 
TCOON,ioos:station:TCOON:072:1,2017-09-10T02:30:00Z,27.8392,-97.4440,1.0,6.45,1111122 
TCOON,ioos:station:TCOON:072:1,2017-09-10T03:30:00Z,27.8392,-97.4440,1.0,6.12,1111122 
TCOON,ioos:station:TCOON:072:1,2017-09-10T04:30:00Z,27.8392,-97.4440,1.0,6.48,1111122 
TCOON,ioos:station:TCOON:072:1,2017-09-10T05:30:00Z,27.8392,-97.4440,1.0,6.33,1111122 
TCOON,ioos:station:TCOON:072:1,2017-09-10T06:30:00Z,27.8392,-97.4440,1.0,5.66,1111122 
TCOON,ioos:station:TCOON:072:1,2017-09-10T07:30:00Z,27.8392,-97.4440,1.0,5.65,1111122 
TCOON,ioos:station:TCOON:072:1,2017-09-10T08:30:00Z,27.8392,-97.4440,1.0,5.96,1111122 
TCOON,ioos:station:TCOON:072:1,2017-09-10T09:30:00Z,27.8392,-97.4440,1.0,5.89,1111122 
TCOON,ioos:station:TCOON:072:1,2017-09-10T10:30:00Z,27.8392,-97.4440,1.0,6.01,1111122 
TCOON,ioos:station:TCOON:072:1,2017-09-10T11:30:00Z,27.8392,-97.4440,1.0,5.98,1111122 
TCOON,ioos:station:TCOON:072:1,2017-09-10T12:30:00Z,27.8392,-97.4440,1.0,6.06,1111122 
TCOON,ioos:station:TCOON:072:1,2017-09-10T13:30:00Z,27.8392,-97.4440,1.0,6.01,1111122 
TCOON,ioos:station:TCOON:072:1,2017-09-10T14:30:00Z,27.8392,-97.4440,1.0,6.01,1111122 
TCOON,ioos:station:TCOON:072:1,2017-09-10T15:30:00Z,27.8392,-97.4440,1.0,5.97,1111122 
TCOON,ioos:station:TCOON:072:1,2017-09-10T16:30:00Z,27.8392,-97.4440,1.0,6.19,1111122 
TCOON,ioos:station:TCOON:072:1,2017-09-10T17:30:00Z,27.8392,-97.4440,1.0,5.99,1111122 
TCOON,ioos:station:TCOON:072:1,2017-09-10T18:30:00Z,27.8392,-97.4440,1.0,7.01,1111122 
TCOON,ioos:station:TCOON:072:1,2017-09-10T19:30:00Z,27.8392,-97.4440,1.0,4.32,1111122 
TCOON,ioos:station:TCOON:072:1,2017-09-10T20:30:00Z,27.8392,-97.4440,1.0,6.22,1111122 
TCOON,ioos:station:TCOON:072:1,2017-09-10T21:30:00Z,27.8392,-97.4440,1.0,6.09,1111122 
TCOON,ioos:station:TCOON:072:1,2017-09-10T22:30:00Z,27.8392,-97.4440,1.0,7.15,1111122 
TCOON,ioos:station:TCOON:072:1,2017-09-10T23:30:00Z,27.8392,-97.4440,1.0,6.34,1111122 
TCOON,ioos:station:TCOON:072:1,2017-09-11T00:30:00Z,27.8392,-97.4440,1.0,6.13,1111122 
TCOON,ioos:station:TCOON:072:1,2017-09-11T01:30:00Z,27.8392,-97.4440,1.0,7.16,1111122 
TCOON,ioos:station:TCOON:072:1,2017-09-11T02:30:00Z,27.8392,-97.4440,1.0,6.78,1111122 
TCOON,ioos:station:TCOON:072:1,2017-09-11T03:30:00Z,27.8392,-97.4440,1.0,7.02,1111122 
TCOON,ioos:station:TCOON:072:1,2017-09-11T04:30:00Z,27.8392,-97.4440,1.0,6.85,1111122 
TCOON,ioos:station:TCOON:072:1,2017-09-11T05:30:00Z,27.8392,-97.4440,1.0,5.88,1111122 
TCOON,ioos:station:TCOON:072:1,2017-09-11T06:30:00Z,27.8392,-97.4440,1.0,6.31,1111122 
TCOON,ioos:station:TCOON:072:1,2017-09-11T07:30:00Z,27.8392,-97.4440,1.0,6.51,1111122 
TCOON,ioos:station:TCOON:072:1,2017-09-11T08:30:00Z,27.8392,-97.4440,1.0,6.4,1111122 
TCOON,ioos:station:TCOON:072:1,2017-09-11T09:30:00Z,27.8392,-97.4440,1.0,6.2,1111122 
TCOON,ioos:station:TCOON:072:1,2017-09-11T10:30:00Z,27.8392,-97.4440,1.0,6.23,1111122 
TCOON,ioos:station:TCOON:072:1,2017-09-11T11:30:00Z,27.8392,-97.4440,1.0,6.21,1111122 
TCOON,ioos:station:TCOON:072:1,2017-09-11T12:30:00Z,27.8392,-97.4440,1.0,6.24,1111122 
TCOON,ioos:station:TCOON:072:1,2017-09-11T13:30:00Z,27.8392,-97.4440,1.0,6.28,1111122 
TCOON,ioos:station:TCOON:072:1,2017-09-11T14:30:00Z,27.8392,-97.4440,1.0,6.32,1111122 
TCOON,ioos:station:TCOON:072:1,2017-09-11T15:30:00Z,27.8392,-97.4440,1.0,6.27,1111122 
TCOON,ioos:station:TCOON:072:1,2017-09-11T16:30:00Z,27.8392,-97.4440,1.0,6.36,1111122 
TCOON,ioos:station:TCOON:072:1,2017-09-11T17:30:00Z,27.8392,-97.4440,1.0,6.96,1111122 
TCOON,ioos:station:TCOON:072:1,2017-09-11T18:30:00Z,27.8392,-97.4440,1.0,7.12,1111122 
TCOON,ioos:station:TCOON:072:1,2017-09-11T19:30:00Z,27.8392,-97.4440,1.0,7.23,1111122 
TCOON,ioos:station:TCOON:072:1,2017-09-11T20:30:00Z,27.8392,-97.4440,1.0,7.24,1111122 
TCOON,ioos:station:TCOON:072:1,2017-09-11T21:30:00Z,27.8392,-97.4440,1.0,7.29,1111122 
TCOON,ioos:station:TCOON:072:1,2017-09-11T22:30:00Z,27.8392,-97.4440,1.0,7.14,1111122 
TCOON,ioos:station:TCOON:072:1,2017-09-11T23:30:00Z,27.8392,-97.4440,1.0,7.0,1111122 
TCOON,ioos:station:TCOON:072:1,2017-09-12T00:30:00Z,27.8392,-97.4440,1.0,6.82,1111122 
TCOON,ioos:station:TCOON:072:1,2017-09-12T01:30:00Z,27.8392,-97.4440,1.0,6.84,1111122 
TCOON,ioos:station:TCOON:072:1,2017-09-12T02:30:00Z,27.8392,-97.4440,1.0,6.93,1111122 
TCOON,ioos:station:TCOON:072:1,2017-09-12T03:30:00Z,27.8392,-97.4440,1.0,6.89,1111122 
TCOON,ioos:station:TCOON:072:1,2017-09-12T04:30:00Z,27.8392,-97.4440,1.0,6.85,1111122 
TCOON,ioos:station:TCOON:072:1,2017-09-12T05:30:00Z,27.8392,-97.4440,1.0,6.98,1111122 
TCOON,ioos:station:TCOON:072:1,2017-09-12T06:30:00Z,27.8392,-97.4440,1.0,6.95,1111122 
TCOON,ioos:station:TCOON:072:1,2017-09-12T07:30:00Z,27.8392,-97.4440,1.0,6.9,1111122 
TCOON,ioos:station:TCOON:072:1,2017-09-12T08:30:00Z,27.8392,-97.4440,1.0,6.07,1111122 
TCOON,ioos:station:TCOON:072:1,2017-09-12T09:30:00Z,27.8392,-97.4440,1.0,6.53,1111122 
TCOON,ioos:station:TCOON:072:1,2017-09-12T10:30:00Z,27.8392,-97.4440,1.0,6.6,1111122 
TCOON,ioos:station:TCOON:072:1,2017-09-12T11:30:00Z,27.8392,-97.4440,1.0,6.46,1111122 
TCOON,ioos:station:TCOON:072:1,2017-09-12T12:30:00Z,27.8392,-97.4440,1.0,6.32,1111122 
TCOON,ioos:station:TCOON:072:1,2017-09-12T13:30:00Z,27.8392,-97.4440,1.0,6.36,1111122 
TCOON,ioos:station:TCOON:072:1,2017-09-12T14:30:00Z,27.8392,-97.4440,1.0,6.39,1111122 
TCOON,ioos:station:TCOON:072:1,2017-09-12T15:30:00Z,27.8392,-97.4440,1.0,6.42,1111122 
TCOON,ioos:station:TCOON:072:1,2017-09-12T16:30:00Z,27.8392,-97.4440,1.0,6.47,1111122 
TCOON,ioos:station:TCOON:072:1,2017-09-12T17:30:00Z,27.8392,-97.4440,1.0,6.56,1111122 
TCOON,ioos:station:TCOON:072:1,2017-09-12T18:30:00Z,27.8392,-97.4440,1.0,6.77,1111122 
TCOON,ioos:station:TCOON:072:1,2017-09-12T19:30:00Z,27.8392,-97.4440,1.0,6.79,1111122 
TCOON,ioos:station:TCOON:072:1,2017-09-12T20:30:00Z,27.8392,-97.4440,1.0,7.18,1111122 
TCOON,ioos:station:TCOON:072:1,2017-09-12T21:30:00Z,27.8392,-97.4440,1.0,7.38,1111122 
TCOON,ioos:station:TCOON:072:1,2017-09-12T22:30:00Z,27.8392,-97.4440,1.0,7.62,1111122 
TCOON,ioos:station:TCOON:072:1,2017-09-12T23:30:00Z,27.8392,-97.4440,1.0,7.65,1111122 
TCOON,ioos:station:TCOON:072:1,2017-09-13T00:30:00Z,27.8392,-97.4440,1.0,7.58,1111122 
TCOON,ioos:station:TCOON:072:1,2017-09-13T01:30:00Z,27.8392,-97.4440,1.0,7.5,1111122 
TCOON,ioos:station:TCOON:072:1,2017-09-13T02:30:00Z,27.8392,-97.4440,1.0,7.3,1111122 
TCOON,ioos:station:TCOON:072:1,2017-09-13T03:30:00Z,27.8392,-97.4440,1.0,7.1,1111122 
TCOON,ioos:station:TCOON:072:1,2017-09-13T04:30:00Z,27.8392,-97.4440,1.0,6.98,1111122 
TCOON,ioos:station:TCOON:072:1,2017-09-13T05:30:00Z,27.8392,-97.4440,1.0,6.84,1111122 
TCOON,ioos:station:TCOON:072:1,2017-09-13T06:30:00Z,27.8392,-97.4440,1.0,6.7,1111122 
TCOON,ioos:station:TCOON:072:1,2017-09-13T07:30:00Z,27.8392,-97.4440,1.0,6.66,1111122 
TCOON,ioos:station:TCOON:072:1,2017-09-13T08:30:00Z,27.8392,-97.4440,1.0,6.58,1111122 
TCOON,ioos:station:TCOON:072:1,2017-09-13T09:30:00Z,27.8392,-97.4440,1.0,6.4,1111122 
TCOON,ioos:station:TCOON:072:1,2017-09-13T10:30:00Z,27.8392,-97.4440,1.0,6.5,1111122 
TCOON,ioos:station:TCOON:072:1,2017-09-13T11:30:00Z,27.8392,-97.4440,1.0,6.19,1111122 
TCOON,ioos:station:TCOON:072:1,2017-09-13T12:30:00Z,27.8392,-97.4440,1.0,6.01,1111122 
TCOON,ioos:station:TCOON:072:1,2017-09-13T13:30:00Z,27.8392,-97.4440,1.0,5.98,1111122 
TCOON,ioos:station:TCOON:072:1,2017-09-13T14:30:00Z,27.8392,-97.4440,1.0,6.12,1111122 
TCOON,ioos:station:TCOON:072:1,2017-09-13T15:30:00Z,27.8392,-97.4440,1.0,6.16,1111122 
TCOON,ioos:station:TCOON:072:1,2017-09-13T16:30:00Z,27.8392,-97.4440,1.0,6.32,1111122 
TCOON,ioos:station:TCOON:072:1,2017-09-13T17:30:00Z,27.8392,-97.4440,1.0,6.4,1111122 
TCOON,ioos:station:TCOON:072:1,2017-09-13T18:30:00Z,27.8392,-97.4440,1.0,6.72,1111122 
TCOON,ioos:station:TCOON:072:1,2017-09-13T19:30:00Z,27.8392,-97.4440,1.0,6.91,1111122 
TCOON,ioos:station:TCOON:072:1,2017-09-13T20:30:00Z,27.8392,-97.4440,1.0,7.09,1111122 
TCOON,ioos:station:TCOON:072:1,2017-09-13T21:30:00Z,27.8392,-97.4440,1.0,7.11,1111122 
TCOON,ioos:station:TCOON:072:1,2017-09-13T22:30:00Z,27.8392,-97.4440,1.0,7.28,1111122 
TCOON,ioos:station:TCOON:072:1,2017-09-13T23:30:00Z,27.8392,-97.4440,1.0,7.32,1111122 